Location: Allentsteig
(48.6833°N, 15.3167°E)
Time: 00:55:41
(UTC+00:00)

Cosmos 2298 Rocket - Pass Details

Date: 23 January 2021
Orbit: 775 x 784 km, 74.0° (Epoch: 03 March)

Event Time Altitude Azimuth Distance (km) Brightness Sun altitude
Exits shadow 03:48:58 14° 357° (N) 2,114 6.2 -27.8°
Maximum altitude 03:52:58 32° 55° (NE) 1,341 5.7 -27.2°
Drops below altitude 10° 03:57:42 10° 118° (ESE) 2,341 7.3 -26.4°
Sets 04:00:20 0° 128° (SE) 3,265 8.0 -25.9°
